This demonstration page uses our WeatherBlox Daily Observations layout. Learn more.

Left ArrowRight Arrow

38.20091, -84.87328

Hourly Observations for March 2, 2022

Temp ( °F °C ) Dew Point ( °F °C ) Humidity (%) Winds ( mph kmh ) Pressure ( in mb ) Visibility ( mi km ) Precip ( " mm )
12:53 am 00:53 Cloudy 46 7.8 33 0.6 61 61 Calm 30.03 1017 10 16 0.00 0.00
1:53 am 01:53 Mostly Clear 42 5.6 33 0.6 71 71 Calm 30.04 1017 10 16 0.00 0.00
2:53 am 02:53 Partly Cloudy 41 5 32 0 70 70 Calm 30.04 1017 10 16 0.00 0.00
3:53 am 03:53 Clear 39 3.9 31 -0.6 73 73 Calm 30.03 1017 10 16 0.00 0.00
4:53 am 04:53 Clear 36 2.2 30 -1.1 79 79 Calm 30.04 1017 10 16 0.00 0.00
5:53 am 05:53 Clear 36 2.2 31 -0.6 82 82 NNW 5 7 30.05 1018 10 16 0.00 0.00
6:53 am 06:53 Clear 34 1.1 30 -1.1 85 85 Calm 30.07 1018 10 16 0.00 0.00
7:53 am 07:53 Sunny 36 2.2 31 -0.6 82 82 Calm 30.09 1019 10 16 0.00 0.00
8:53 am 08:53 Sunny 47 8.3 35 1.7 63 63 Calm 30.09 1019 10 16 0.00 0.00
9:53 am 09:53 Sunny 52 11.1 36 2.2 55 55 E 5 7 30.11 1020 10 16 0.00 0.00
10:53 am 10:53 Sunny 56 13.3 35 1.7 46 46 Calm 30.12 1020 10 16 0.00 0.00
11:53 am 11:53 Sunny 61 16.1 37 2.8 41 41 VRB 5 7 30.11 1020 10 16 0.00 0.00
12:53 pm 12:53 Sunny 65 18.3 37 2.8 36 36 undefined N/A 30.09 1019 10 16 0.00 0.00
1:53 pm 13:53 Sunny 69 20.6 37 2.8 31 31 SW 8 13 30.06 1018 10 16 0.00 0.00
2:53 pm 14:53 Sunny 70 21.1 35 1.7 28 28 W 7 11 30.04 1017 10 16 0.00 0.00
3:53 pm 15:53 Partly Cloudy 70 21.1 35 1.7 28 28 W 10 17 30.03 1017 10 16 0.00 0.00
4:53 pm 16:53 Sunny 70 21.1 36 2.2 29 29 SW 8 13 30.00 1016 10 16 0.00 0.00
5:53 pm 17:53 Sunny 68 20 37 2.8 32 32 SSW 8 13 29.99 1016 10 16 0.00 0.00
6:53 pm 18:53 Partly Cloudy 65 18.3 38 3.3 37 37 SSW 8 13 29.99 1016 10 16 0.00 0.00
7:53 pm 19:53 Partly Cloudy 65 18.3 38 3.3 37 37 SW 9 15 30.00 1016 10 16 0.00 0.00
8:53 pm 20:53 Cloudy 61 16.1 40 4.4 46 46 SW 7 11 30.00 1016 10 16 0.00 0.00
9:53 pm 21:53 Mostly Cloudy 59 15 39 3.9 48 48 SSW 5 7 29.99 1016 10 16 0.00 0.00
10:53 pm 22:53 Mostly Cloudy 58 14.4 39 3.9 50 50 SSW 5 7 29.98 1015 10 16 0.00 0.00
11:53 pm 23:53 Partly Cloudy 57 13.9 39 3.9 51 51 SW 8 13 29.97 1015 10 16 0.00 0.00

Powered by AerisWeather